Arcata, CA

4:40 PM PDT on August 30, 2016 (GMT -0700)
Arcata

Weather History for KACV - January, 2013

Change the Weather History Date:

Saturday, January 19, 2013

  Actual Average Record
Temperature  
Mean Temperature 38 °F -  
Max Temperature 48 °F 54 °F 70 °F (2009)
Min Temperature 28 °F 39 °F 28 °F (2013)
Degree Days  
Heating Degree Days 27    
Moisture  
Dew Point 35 °F    
Average Humidity 97    
Maximum Humidity 100    
Minimum Humidity 83    
Precipitation  
Precipitation 0.02 in - - ()
Sea Level Pressure  
Sea Level Pressure 30.23 in    
Wind  
Wind Speed 1 mph (NNW)    
Max Wind Speed 6 mph    
Max Gust Speed -    
Visibility 3 miles    
Events Fog    
Averages and records for this station are not official NWS values.
T = Trace of Precipitation, MM = Missing Value Source: NWS Daily Summary

Daily Weather History Graph

Daily Weather History Graph

Search for Another Location

Airport or City:

Trip Planner

Search our weather history database for the weather conditions in past years. The results will help you decide how hot, cold, wet, or windy it might be!

Date:

Astronomy

Jan. 19, 2013 Rise Set
Actual Time 7:36 AM PST 5:18 PM PST
Civil Twilight 7:06 AM PST 5:48 PM PST
Nautical Twilight 6:33 AM PST 6:21 PM PST
Astronomical Twilight 6:00 AM PST 6:54 PM PST
Moon 11:48 AM PST (1/19) 1:16 AM PST (1/19)
Length of Visible Light 10h 41m
Length of Day
9h 41m
First Quarter, 58% of the Moon is Illuminated
Jan 19
First Quarter
Jan 26
Full
Feb 3
Last Quarter
Feb 9
New
Feb 17
First Quarter

Hourly Weather History & Observations

Time (PST) Temp. Windchill Dew Point Humidity Pressure Visibility Wind Dir Wind Speed Gust Speed Precip Events Conditions
12:03 AM 30.2 °F - 30.2 °F 100% 30.18 in 0.8 mi Calm Calm - N/A   Mist
12:16 AM 30.2 °F - 30.2 °F 100% 30.18 in 0.2 mi Calm Calm - N/A Fog Light Freezing Fog
12:34 AM 30.2 °F - 30.2 °F 100% 30.18 in 0.2 mi Calm Calm - N/A Fog Light Freezing Fog
12:42 AM 30.2 °F - 30.2 °F 100% 30.18 in 0.5 mi Calm Calm - N/A Fog Light Freezing Fog
12:53 AM 28.9 °F - 28.9 °F 100% 30.20 in 0.5 mi Calm Calm - N/A Fog Light Freezing Fog
1:05 AM 30.2 °F - 28.4 °F 93% 30.18 in 2.0 mi Calm Calm - N/A   Mostly Cloudy
1:13 AM 28.4 °F - 28.4 °F 100% 30.18 in 2.5 mi Calm Calm - N/A   Scattered Clouds
1:29 AM 30.2 °F - 28.4 °F 93% 30.19 in 1.5 mi Calm Calm - N/A   Mostly Cloudy
1:40 AM 30.2 °F 26.7 °F 30.2 °F 100% 30.19 in 0.5 mi ENE 3.5 mph - N/A Fog Light Freezing Fog
1:53 AM 30.9 °F - 30.9 °F 100% 30.22 in 0.2 mi Calm Calm - N/A Fog Light Freezing Fog
2:24 AM 30.2 °F - 30.2 °F 100% 30.20 in 0.5 mi Calm Calm - N/A Fog Light Freezing Fog
2:45 AM 30.2 °F - 30.2 °F 100% 30.21 in 0.2 mi Calm Calm - N/A Fog Light Freezing Fog
2:53 AM 30.0 °F - 30.0 °F 100% 30.24 in 0.2 mi Calm Calm - N/A Fog Light Freezing Fog
3:29 AM 30.2 °F - 30.2 °F 100% 30.21 in 0.2 mi Calm Calm - N/A Fog Light Freezing Fog
3:53 AM 30.0 °F - 30.0 °F 100% 30.24 in 1.5 mi Calm Calm - N/A   Mostly Cloudy
3:56 AM 30.2 °F - 28.4 °F 93% 30.21 in 2.5 mi Calm Calm - N/A   Scattered Clouds
4:03 AM 28.4 °F - 28.4 °F 100% 30.21 in 3.0 mi Calm Calm - N/A   Scattered Clouds
4:10 AM 28.4 °F - 28.4 °F 100% 30.21 in 2.0 mi Calm Calm - N/A   Partly Cloudy
4:19 AM 28.4 °F - 28.4 °F 100% 30.21 in 10.0 mi Calm Calm - N/A   Clear
4:53 AM 28.0 °F - 28.0 °F 100% 30.24 in 6.0 mi Calm Calm - N/A   Clear
5:53 AM 28.9 °F - 28.0 °F 96% 30.25 in 10.0 mi Calm Calm - N/A   Clear
6:53 AM 28.0 °F - 27.0 °F 96% 30.25 in 10.0 mi Calm Calm - N/A   Clear
7:53 AM 28.9 °F - 28.0 °F 96% 30.26 in 9.0 mi Calm Calm - N/A   Clear
8:34 AM 30.2 °F - 30.2 °F 100% 30.24 in 2.5 mi Calm Calm - N/A   Partly Cloudy
8:49 AM 32.0 °F - 30.2 °F 93% 30.24 in 4.0 mi Calm Calm - N/A   Clear
8:53 AM 32.0 °F - 30.9 °F 96% 30.27 in 4.0 mi Calm Calm - N/A   Partly Cloudy
9:03 AM 33.8 °F - 33.8 °F 100% 30.25 in 1.8 mi Calm Calm - 0.01 in   Mostly Cloudy
9:08 AM 33.8 °F - 33.8 °F 100% 30.25 in 0.2 mi Calm Calm - 0.01 in Fog Fog
9:16 AM 33.8 °F - 33.8 °F 100% 30.26 in 0.2 mi Calm Calm - 0.01 in Fog Fog
9:41 AM 35.6 °F - 35.6 °F 100% 30.26 in 0.2 mi Calm Calm - 0.01 in Fog Fog
9:53 AM 37.0 °F - 37.0 °F 100% 30.29 in 0.2 mi Calm Calm - 0.01 in Fog Fog
10:03 AM 39.2 °F - 39.2 °F 100% 30.26 in 1.0 mi Calm Calm - N/A   Mist
10:05 AM 39.2 °F - 39.2 °F 100% 30.26 in 3.0 mi Calm Calm - N/A   Mostly Cloudy
10:19 AM 39.2 °F - 39.2 °F 100% 30.26 in 8.0 mi Calm Calm - N/A   Scattered Clouds
10:26 AM 39.2 °F 37.0 °F 39.2 °F 100% 30.26 in 1.2 mi NW 3.5 mph - N/A   Scattered Clouds
10:28 AM 39.2 °F 37.0 °F 39.2 °F 100% 30.27 in 0.8 mi NW 3.5 mph - N/A   Mist
10:44 AM 39.2 °F 37.0 °F 39.2 °F 100% 30.26 in 0.2 mi NNW 3.5 mph - N/A Fog Fog
10:53 AM 39.9 °F 37.8 °F 39.9 °F 100% 30.29 in 0.2 mi NW 3.5 mph - N/A Fog Fog
10:58 AM 39.2 °F - 39.2 °F 100% 30.26 in 0.2 mi Calm Calm - N/A Fog Fog
11:11 AM 41.0 °F 39.0 °F 41.0 °F 100% 30.26 in 1.2 mi NNW 3.5 mph - N/A   Overcast
11:21 AM 41.0 °F 39.0 °F 41.0 °F 100% 30.26 in 3.0 mi North 3.5 mph - N/A   Overcast
11:40 AM 42.8 °F - 41.0 °F 93% 30.25 in 10.0 mi North - - N/A   Scattered Clouds
11:53 AM 43.0 °F - 42.1 °F 97% 30.28 in 9.0 mi North - - N/A   Clear
12:16 PM 44.6 °F 42.2 °F 42.8 °F 93% 30.24 in 6.0 mi WNW 4.6 mph - N/A   Partly Cloudy
12:53 PM 48.0 °F - 43.0 °F 83% 30.26 in 10.0 mi Calm Calm - N/A   Clear
1:53 PM 48.9 °F - 44.1 °F 83% 30.23 in 4.0 mi WNW 4.6 mph - N/A   Haze
2:53 PM 48.0 °F - 44.1 °F 86% 30.23 in 6.0 mi NW 5.8 mph - N/A   Clear
3:53 PM 46.9 °F - 44.1 °F 90% 30.23 in 5.0 mi NW 4.6 mph - N/A   Clear
4:25 PM 46.4 °F 44.3 °F 42.8 °F 87% 30.20 in 2.0 mi NNW 4.6 mph - N/A   Clear
4:40 PM 44.6 °F 43.1 °F 42.8 °F 93% 30.20 in 3.0 mi NNW 3.5 mph - N/A   Clear
4:53 PM 43.0 °F - 42.1 °F 97% 30.23 in 2.5 mi Calm Calm - N/A   Clear
5:21 PM 42.8 °F - 42.8 °F 100% 30.20 in 3.0 mi Calm Calm - N/A   Clear
5:28 PM 42.8 °F - 41.0 °F 93% 30.20 in 1.8 mi Calm Calm - N/A   Clear
5:37 PM 41.0 °F - 39.2 °F 93% 30.20 in 3.0 mi Calm Calm - N/A   Clear
5:53 PM 41.0 °F - 39.9 °F 96% 30.23 in 6.0 mi Calm Calm - N/A   Clear
6:53 PM 37.9 °F 35.5 °F 37.0 °F 97% 30.24 in 9.0 mi ESE 3.5 mph - N/A   Clear
7:53 PM 36.0 °F - 36.0 °F 100% 30.24 in 5.0 mi Calm Calm - N/A   Clear
8:20 PM 35.6 °F - 35.6 °F 100% 30.22 in 2.0 mi Calm Calm - N/A   Clear
8:30 PM 35.6 °F - 35.6 °F 100% 30.22 in 4.0 mi Calm Calm - N/A   Clear
8:53 PM 35.1 °F - 35.1 °F 100% 30.25 in 8.0 mi Calm Calm - N/A   Clear
9:53 PM 36.0 °F - 35.1 °F 97% 30.26 in 5.0 mi Calm Calm - N/A   Clear
10:53 PM 35.1 °F - 35.1 °F 100% 30.27 in 2.5 mi Calm Calm - N/A   Clear
11:07 PM 33.8 °F 30.8 °F 33.8 °F 100% 30.24 in 4.0 mi East 3.5 mph - N/A   Clear
11:53 PM 34.0 °F - 33.1 °F 96% 30.27 in 3.0 mi Calm Calm - 0.01 in   Clear